Weather History for KANJ - January, 2014

Change the Weather History Date:

Tuesday, January 14, 2014

  Actual Average Record
Temperature  
Mean Temperature 25 °F 15 °F  
Max Temperature 28 °F 23 °F 43 °F (1932)
Min Temperature 21 °F 7 °F -27 °F (1965)
Degree Days  
Heating Degree Days 40 50  
Month to date heating degree days 719 688  
Since 1 July heating degree days 4234 3947  
Moisture  
Dew Point 20 °F    
Average Humidity 76    
Maximum Humidity 88    
Minimum Humidity 63    
Precipitation  
Precipitation 0.14 in 0.07 in 1.16 in (1940)
Month to date precipitation 0.92 1.07  
Year to date precipitation 0.92 1.07  
Snow  
Snow 1.90 in 1.00 in 6.60 in (1972)
Month to date snowfall 11.1 14.7  
Since 1 July snowfall 65.8 64.9  
Snow Depth 16.00 in    
Sea Level Pressure  
Sea Level Pressure 29.70 in    
Wind  
Wind Speed 6 mph (NNW)    
Max Wind Speed 14 mph    
Max Gust Speed 19 mph    
Visibility 5 miles    
Events Fog , Snow    
T = Trace of Precipitation, MM = Missing Value Source: NWS Daily Summary

Daily Weather History Graph

Daily Weather History Graph

Search for Another Location

Airport or City:

Trip Planner

Search our weather history database for the weather conditions in past years. The results will help you decide how hot, cold, wet, or windy it might be!

Date:

Astronomy

Jan. 14, 2014 Rise Set
Actual Time 8:17 AM EST 5:15 PM EST
Civil Twilight 7:43 AM EST 5:49 PM EST
Nautical Twilight 7:06 AM EST 6:27 PM EST
Astronomical Twilight 6:30 AM EST 7:03 PM EST
Moon 4:22 PM EST (1/14) 6:49 AM EST (1/14)
Length of Visible Light 10h 06m
Length of Day
8h 58m
Waxing Gibbous, 98% of the Moon is Illuminated
Jan 14
Waxing Gibbous
Jan 15
Full
Jan 24
Last Quarter
Jan 30
New
Feb 6
First Quarter

Hourly Weather History & Observations

Time (EST) Temp. Windchill Dew Point Humidity Pressure Visibility Wind Dir Wind Speed Gust Speed Precip Events Conditions
12:55 AM 28.0 °F 19.3 °F 19.0 °F 69% 29.58 in 10.0 mi WSW 9.2 mph - N/A   Overcast
1:55 AM 28.0 °F 18.6 °F 18.0 °F 66% 29.58 in 10.0 mi WSW 10.4 mph 18.4 mph N/A   Overcast
2:55 AM 28.0 °F 18.1 °F 18.0 °F 66% 29.61 in 10.0 mi WSW 11.5 mph - N/A   Overcast
3:55 AM 27.0 °F 18.0 °F 18.0 °F 69% 29.62 in 10.0 mi WSW 9.2 mph - N/A   Overcast
4:22 AM 27.0 °F 17.3 °F 18.0 °F 69% 29.61 in 10.0 mi WSW 10.4 mph - N/A   Overcast
4:55 AM 27.0 °F 18.0 °F 19.0 °F 72% 29.63 in 10.0 mi WSW 9.2 mph - N/A   Overcast
5:55 AM 27.0 °F 18.0 °F 19.0 °F 72% 29.65 in 10.0 mi West 9.2 mph - N/A   Overcast
6:55 AM 27.0 °F 19.5 °F 19.0 °F 72% 29.66 in 10.0 mi West 6.9 mph - N/A   Overcast
7:55 AM 27.0 °F 21.6 °F 21.0 °F 78% 29.68 in 6.0 mi NW 4.6 mph - 0.01 in Snow Light Snow
8:55 AM 26.1 °F 20.5 °F 19.9 °F 78% 29.71 in 3.0 mi NW 4.6 mph - 0.00 in Snow Light Snow
9:40 AM 26.1 °F 21.9 °F 19.9 °F 78% 29.69 in 5.0 mi NW 3.5 mph - 0.00 in Snow Light Snow
9:55 AM 26.1 °F - 19.9 °F 78% 29.72 in 4.0 mi Calm Calm - 0.00 in Snow Light Snow
10:55 AM 27.0 °F 23.0 °F 19.9 °F 75% 29.74 in 5.0 mi NW 3.5 mph - 0.00 in Snow Light Snow
11:55 AM 26.1 °F 21.9 °F 21.0 °F 81% 29.75 in 4.0 mi SSW 3.5 mph - 0.00 in Snow Light Snow
12:06 PM 26.1 °F 21.9 °F 21.0 °F 81% 29.72 in 6.0 mi SSW 3.5 mph - 0.00 in Snow Light Snow
12:55 PM 26.1 °F 20.5 °F 19.9 °F 78% 29.74 in 8.0 mi WNW 4.6 mph - 0.00 in Snow Light Snow
1:28 PM 28.0 °F - 19.9 °F 72% 29.70 in 10.0 mi Calm Calm - 0.00 in   Overcast
1:55 PM 27.0 °F 21.6 °F 19.0 °F 72% 29.72 in 10.0 mi North 4.6 mph - 0.00 in   Mostly Cloudy
2:50 PM 26.6 °F 22.6 °F 19.4 °F 74% 29.71 in 10.0 mi NNW 3.5 mph - N/A   Overcast
2:55 PM 27.0 °F - 19.9 °F 75% 29.73 in 10.0 mi Calm Calm - N/A   Overcast
3:55 PM 27.0 °F - 19.0 °F 72% 29.74 in 9.0 mi Calm Calm - 0.00 in Snow Light Snow
4:08 PM 27.0 °F 23.0 °F 21.0 °F 78% 29.71 in 1.8 mi NE 3.5 mph - 0.00 in Snow Light Snow
4:38 PM 26.1 °F 21.9 °F 21.0 °F 81% 29.72 in 0.8 mi NNE 3.5 mph - 0.00 in Snow Light Snow
4:55 PM 25.0 °F 20.7 °F 21.9 °F 88% 29.74 in 0.5 mi North 3.5 mph - 0.01 in Fog , Snow Snow
5:02 PM 25.0 °F 18.1 °F 21.9 °F 88% 29.72 in 0.5 mi North 5.8 mph - 0.01 in Fog , Snow Snow
5:10 PM 25.0 °F 18.1 °F 21.9 °F 88% 29.72 in 0.8 mi North 5.8 mph - 0.01 in Snow Light Snow
5:22 PM 25.0 °F 18.1 °F 21.9 °F 88% 29.73 in 1.0 mi North 5.8 mph - 0.02 in Snow Light Snow
5:41 PM 25.0 °F 18.1 °F 21.0 °F 85% 29.73 in 1.0 mi North 5.8 mph - 0.03 in Snow Light Snow
5:55 PM 24.1 °F 17.0 °F 21.0 °F 88% 29.76 in 1.0 mi North 5.8 mph - 0.04 in Snow Light Snow
6:39 PM 24.1 °F 17.0 °F 21.0 °F 88% 29.73 in 1.5 mi North 5.8 mph - 0.01 in Snow Light Snow
6:55 PM 24.1 °F 16.0 °F 19.9 °F 84% 29.75 in 1.5 mi North 6.9 mph - 0.02 in Snow Light Snow
7:47 PM 24.1 °F 17.0 °F 19.9 °F 84% 29.72 in 2.0 mi North 5.8 mph - 0.01 in Snow Light Snow
7:55 PM 24.1 °F 17.0 °F 19.9 °F 84% 29.75 in 2.5 mi North 5.8 mph - 0.01 in Snow Light Snow
8:24 PM 24.1 °F 16.0 °F 19.9 °F 84% 29.72 in 1.8 mi North 6.9 mph - 0.00 in Snow Light Snow
8:55 PM 23.0 °F 13.9 °F 19.9 °F 88% 29.75 in 1.2 mi North 8.1 mph - 0.01 in Snow Light Snow
9:55 PM 23.0 °F 15.8 °F 19.0 °F 85% 29.74 in 2.5 mi North 5.8 mph - 0.01 in Snow Light Snow
9:57 PM 23.0 °F 15.8 °F 19.0 °F 85% 29.71 in 3.0 mi North 5.8 mph - 0.01 in Snow Light Snow
10:39 PM 23.0 °F 14.7 °F 18.0 °F 81% 29.71 in 2.0 mi North 6.9 mph - 0.01 in Snow Light Snow
10:43 PM 23.0 °F 13.9 °F 18.0 °F 81% 29.71 in 1.8 mi North 8.1 mph - 0.01 in Snow Light Snow
10:55 PM 23.0 °F 14.7 °F 18.0 °F 81% 29.74 in 2.0 mi North 6.9 mph - 0.01 in Snow Light Snow
11:17 PM 21.9 °F 12.5 °F 18.0 °F 85% 29.70 in 1.2 mi NNE 8.1 mph - 0.01 in Snow Light Snow
11:55 PM 21.0 °F 10.6 °F 17.1 °F 85% 29.73 in 1.2 mi NNE 9.2 mph - 0.02 in Snow Light Snow